Voltar ao catálogo

STARLINK-36816

AtivoComunicaçõesSSO
NORAD 67891·PAYLOAD·🇺🇸 United States

Lançado Feb 21, 2026 de Vandenberg Space Force Base

Loading…

Próximas Passagens (próximas 24 horas)

TLE

AtualizadoSource: CelesTrak SupGP

Época: Sep 14, 2026, 23:08 UTC

1 67891C 26035N   26257.96437500 -.00053703  00000+0 -16675-2 0  2576
2 67891  97.2845 188.8982 0001615  92.2958 112.9205 15.33457801    18

Acompanhe STARLINK-36816 em tempo real com AllMySat

Download on the App Store